Regional Weather Roundup
Issued by NWS

Home | Current Version | Previous Version | Text Only | Print | Product List | Glossary On
Versions: 1 2 3 4 5 6 7 8 9 10 11 12 13 14 15 16 17 18 19 20 21 22 23 24 25 26 27 28 29 30 31 32 33 34 35 36 37 38 39 40 41 42 43 44 45 46 47 48 49 50
268
ASUS43 KBIS 260010
RWRND

NORTH DAKOTA REGIONAL WEATHER ROUNDUP
NATIONAL WEATHER SERVICE BISMARCK ND
600 PM CST SAT FEB 25 2017

NOTE: "FAIR" INDICATES FEW OR NO CLOUDS BELOW 12,000 FEET WITH NO
SIGNIFICANT WEATHER AND/OR OBSTRUCTIONS TO VISIBILITY.


NDZ001>003-009>011-017-260100-
NORTHWEST NORTH DAKOTA

CITY           SKY/WX    TMP DP  RH WIND       PRES   REMARKS
WILLISTON      MIX PCPN  19  15  84 NE18      29.69S FOG     WCI   4
6HR MIN TEMP:  19; 6HR MAX TEMP:  28; 6HR PCP:  0.02;

MINOT          LGT SNOW  19  16  88 N9        29.70F VSB 1   WCI   8
$$

NDZ018>021-031>035-040>046-260100-
SOUTHWEST NORTH DAKOTA

CITY           SKY/WX    TMP DP  RH WIND       PRES   REMARKS
BISMARCK       FAIR      27  20  75 S6        29.73F
6HR MIN TEMP:  26; 6HR MAX TEMP:  30;

DICKINSON      CLOUDY    24  20  84 W12       29.64F WCI  13
GARRISON         N/A     23  19  85 S7        29.66F WCI  15
6HR MIN TEMP:  23; 6HR MAX TEMP:  26;

HETTINGER ARPT LGT SNOW  27  21  78 SW9       29.69F WCI  18
$$

NDZ004>008-012>016-024-026-027-054-260100-
NORTHEAST NORTH DAKOTA

CITY           SKY/WX    TMP DP  RH WIND       PRES   REMARKS
GRAND FORKS    MOCLDY    26  14  60 N9        29.75F WCI  17
GRND FRKS AFB  PTCLDY    25  15  66 NW9       29.75F WCI  16
DEVILS LAKE    CLOUDY    20  13  74 W14       29.74F WCI   7
$$

NDZ022-023-025-028>030-036>039-047>053-260100-
SOUTHEAST NORTH DAKOTA

CITY           SKY/WX    TMP DP  RH WIND       PRES   REMARKS
FARGO          CLOUDY    30  22  72 W7        29.76F
6HR MIN TEMP:  30; 6HR MAX TEMP:  32; 6HR PCP: TRACE;

JAMESTOWN      FAIR      25  18  74 W7        29.73F WCI  17
$$





USA.gov is the U.S. government's official web portal to all federal, state and local government web resources and services.